SCP
0 0 0 0 0 0 0 0 0 0 -0 0 0 0 -0 -0 0 -0 -0 -0 -0 -0 -0 -0 -0 -0 0 0 0 -0 0 0 1 1 1 1 1 0 0 0 0 0 0 0
0 0 0 0 0 0 0 0 0 0 0 -0 0 0 0 0 0 -0 -0 0 -0 -0 -0 -0 -0 0 0 0 0 0 0 1 1 1 1 0 0 0 0 0 0 0 0 0
0 0 0 0 0 0 0 0 0 0 0 -0 0 0 0 0 0 0 0 0 -0 -0 -0 -0 0 0 0 1 1 1 1 1 1 1 0 0 0 0 0 0 0 0 0 0
0 0 0 -0 -0 0 0 0 0 0 -0 0 0 0 0 0 0 0 1 0 0 -0 0 0 1 1 2 2 2 2 1 1 1 0 0 0 0 0 0 0 0 0 0 0
0 0 0 0 0 0 0 0 0 0 0 0 0 0 0 0 0 0 1 0 0 -0 0 1 1 2 2 2 2 2 1 1 0 0 0 0 0 0 0 0 0 0 0 0
0 0 0 0 0 0 0 0 0 -0 0 0 0 0 0 0 0 1 0 1 1 1 -0 1 3 2 2 2 2 2 1 0 0 0 0 0 0 0 0 0 0 0 0 0
0 0 0 0 0 0 0 0 0 0 0 0 0 0 0 0 0 1 1 2 2 3 3 3 3 3 2 2 2 1 0 0 0 0 0 0 0 0 0 0 0 0 0 0
0 0 0 0 0 0 0 0 0 0 0 0 0 0 0 0 1 2 2 2 3 5 6 3 3 3 2 2 0 0 0 0 0 0 0 0 0 0 0 0 0 0 0 0
0 0 0 0 0 0 0 -0 -0 0 0 0 0 0 1 3 3 3 3 4 5 7 6 5 3 2 1 0 0 0 0 0 0 0 0 0 0 0 0 0 0 0 0 0
0 0 0 0 0 0 0 0 -0 0 0 0 0 2 3 4 5 5 5 7 7 7 8 5 2 1 0 0 0 0 0 0 0 0 0 0 0 0 0 0 0 0 0 0
0 0 0 0 0 0 0 0 0 0 0 0 0 3 3 4 5 6 7 8 8 8 5 3 0 0 0 0 0 0 0 0 0 0 0 0 0 0 0 0 0 0 0 0
0 0 0 0 0 0 0 0 0 0 0 1 1 2 3 4 5 6 5 5 5 5 2 0 0 0 0 0 0 0 0 0 0 0 0 0 0 0 0 0 0 0 0 0
0 0 0 0 0 1 0 0 0 0 0 2 3 4 4 5 6 6 4 3 2 1 0 0 0 0 0 0 0 0 0 0 0 0 0 0 0 0 0 0 0 0 0 0
1 0 0 0 0 0 0 0 0 0 0 3 4 3 3 4 3 4 3 2 1 0 0 0 0 0 0 0 0 0 0 0 0 0 0 0 0 0 0 0 0 0 0 0
1 0 0 0 0 0 0 0 1 1 2 3 3 2 2 2 2 3 2 1 0 0 0 0 0 0 0 0 0 0 0 0 0 0 0 0 0 0 0 0 0 0 0 0
0 0 0 0 0 0 0 0 2 5 4 4 4 3 3 3 2 2 0 0 0 0 0 0 0 0 0 0 0 0 0 0 0 0 0 0 0 0 0 0 0 0 0 0
0 0 0 0 0 0 0 0 0 7 5 4 3 3 3 2 1 0 0 0 0 0 0 0 0 0 0 0 0 0 0 0 0 0 0 0 0 0 0 0 0 0 0 0
0 0 0 0 0 1 3 2 1 5 5 4 3 2 1 1 0 0 0 0 0 0 0 0 0 0 0 0 0 0 0 0 0 0 0 0 0 0 0 0 0 0 0 0
0 0 0 0 1 2 2 4 3 2 3 3 2 1 1 0 0 0 0 0 0 0 0 0 0 0 0 0 0 0 0 0 0 0 0 0 0 0 0 0 0 0 0 0
-0 -0 -0 -0 0 -0 1 1 2 2 2 1 1 0 0 0 0 0 0 0 0 0 0 0 0 0 0 0 0 0 0 0 0 0 0 0 0 0 0 0 0 0 0 0
-0 -0 -0 -1 -0 0 0 0 1 1 1 0 1 0 0 0 0 0 0 0 0 0 0 0 0 0 0 0 0 0 0 0 0 0 0 0 0 0 0 0 0 0 0 0
0 -0 -0 -0 -0 -0 -0 0 0 0 0 0 0 0 0 0 0 0 0 0 0 0 0 0 0 0 0 0 0 0 0 0 0 0 0 0 0 0 0 0 0 0 0 0
0 0 0 -0 -0 -0 0 0 0 0 0 0 0 0 0 0 0 0 0 0 0 0 0 0 0 0 0 0 0 0 0 0 0 0 0 0 0 0 0 0 0 0 0 0
0 0 0 0 0 0 0 0 0 0 0 0 0 0 0 0 0 0 0 0 0 0 0 0 0 0 0 0 0 0 0 0 0 0 0 0 0 0 0 0 0 0 0 0
0 0 0 0 0 0 0 0 0 0 0 0 0 0 0 0 0 0 0 0 0 0 0 0 0 0 0 0 0 0 0 0 0 0 0 0 0 0 0 0 0 0 0 0
0 0 0 0 0 0 0 0 0 0 0 0 0 0 0 0 0 0 0 0 0 0 0 0 0 0 0 0 0 0 0 0 0 0 0 0 0 0 0 0 0 0 0 0
0 0 0 0 0 0 0 0 0 0 0 0 0 0 0 0 0 0 0 0 0 0 0 0 0 0 0 0 0 0 0 0 0 0 0 0 0 0 0 0 0 0 0 0
Wind_Speed_500mb
42 31 12 10 17 18 15 14 15 18 15 23 11 22 46 80 77 78 78 83 101 109 106 102 94 91 85 77 65 60 59 58 55 44 36 34 33 34 33 28 27 26 21 20
32 22 11 21 20 34 25 13 17 15 16 15 21 23 37 68 77 76 86 102 112 115 109 105 100 94 88 81 75 70 71 66 58 47 40 43 45 42 35 30 31 23 19 17
32 30 22 14 16 27 26 25 25 22 24 10 12 18 52 58 71 82 94 109 109 112 111 108 99 95 91 82 77 77 77 68 61 52 49 50 48 41 32 32 28 22 16 13
23 11 24 18 16 20 43 41 19 14 16 19 32 55 52 63 74 77 82 91 106 104 105 105 100 93 88 84 82 81 75 70 63 57 54 52 46 36 31 31 23 18 14 11
18 26 6 11 11 14 18 30 17 25 16 26 44 22 28 63 72 73 71 62 59 67 80 96 93 87 87 86 85 79 74 71 63 60 56 51 42 36 34 28 22 18 14 10
10 29 31 16 12 14 12 9 9 23 20 22 21 9 12 72 87 80 75 66 67 73 79 84 83 82 84 86 81 76 72 65 62 60 53 47 38 37 31 25 22 18 16 13
11 21 11 15 19 18 15 16 16 30 47 36 14 24 35 52 76 84 83 79 76 71 74 79 81 81 79 75 73 68 65 62 61 53 48 41 41 35 30 26 20 18 18 15
5 10 11 22 16 31 24 32 40 25 27 52 46 44 52 57 82 81 80 78 76 79 78 79 82 75 68 68 66 64 62 62 56 49 49 45 37 32 29 25 22 23 21 18
15 13 14 29 29 18 6 23 22 35 39 56 52 48 47 66 72 73 76 75 76 77 77 78 74 67 59 64 66 66 60 53 51 53 48 42 35 32 32 29 27 25 22 18
10 6 8 43 33 21 20 7 18 43 44 58 55 52 52 54 61 67 76 79 80 81 78 75 72 64 45 60 67 62 53 51 55 53 48 39 36 33 31 30 31 29 23 20
3 3 27 34 32 16 16 13 9 41 56 56 60 64 64 69 72 75 77 83 84 84 81 75 73 64 56 57 59 61 52 58 59 53 46 46 40 33 29 25 26 24 25 25
9 15 18 11 20 20 11 8 21 35 44 50 50 57 64 75 78 80 81 83 82 83 79 74 68 67 61 56 48 54 58 63 60 56 54 45 39 34 33 29 28 28 27 26
14 29 8 24 11 15 7 10 10 15 22 30 36 45 55 69 78 80 80 81 83 83 76 70 70 65 58 52 48 51 57 62 62 59 50 44 37 31 28 27 23 19 17 18
82 60 64 50 30 26 21 20 19 17 26 21 32 44 54 70 76 76 78 79 76 71 70 69 64 60 58 50 47 51 56 61 62 55 46 39 37 29 25 20 19 17 13 9
66 68 54 55 53 56 35 17 19 30 27 27 32 42 51 64 71 74 73 72 70 65 65 65 63 61 57 49 50 56 63 64 55 47 41 39 36 33 28 24 20 16 11 12
50 55 69 72 68 62 55 47 13 17 25 33 43 50 56 61 69 71 70 64 64 69 69 68 63 59 56 51 53 61 63 58 53 46 46 40 38 38 35 28 23 18 12 9
48 64 68 74 65 63 55 51 34 18 31 36 46 53 57 58 58 60 59 57 57 55 60 64 61 60 52 50 58 67 63 56 51 45 44 37 39 39 34 28 22 17 14 10
37 32 38 44 48 52 52 46 38 26 34 40 44 48 51 52 56 58 54 53 53 56 60 57 55 53 46 54 67 69 59 58 51 46 43 38 36 34 34 33 26 20 23 19
31 38 36 41 45 46 46 49 41 35 39 39 42 44 39 40 49 50 50 50 52 56 57 54 53 47 48 65 68 60 58 57 51 46 42 40 38 46 42 44 36 28 25 22
28 31 32 38 33 36 40 37 18 25 28 37 35 32 38 44 46 47 48 50 45 43 44 49 48 46 59 64 62 60 60 56 53 48 46 47 49 50 42 45 34 31 31 25
29 24 20 31 31 23 21 20 13 16 23 28 37 38 41 45 47 47 49 46 42 41 39 41 43 55 61 61 61 59 56 54 55 55 51 47 48 46 51 46 36 35 31 26
24 25 24 28 30 24 15 13 20 29 33 37 49 47 51 52 52 52 42 35 39 41 39 40 46 58 61 60 57 55 50 51 58 53 48 43 48 46 43 38 37 33 27 26
14 18 24 30 30 29 21 15 25 28 31 39 46 48 51 55 53 46 54 50 40 40 42 43 47 56 65 65 59 55 51 46 48 55 50 45 40 36 38 37 35 29 26 28
6 16 19 24 26 28 29 24 26 28 33 37 38 39 39 43 52 52 43 43 46 46 45 49 52 60 68 67 61 48 50 51 47 44 47 40 34 33 38 35 34 31 29 27
4 10 11 14 16 21 22 23 26 32 37 39 43 47 50 49 46 51 48 49 51 47 46 47 51 54 66 70 65 57 51 47 45 42 42 41 35 31 36 31 31 30 26 23
20 22 11 4 9 13 18 21 29 33 38 43 46 49 52 55 49 48 47 50 45 44 47 48 46 45 48 61 69 53 46 42 40 40 39 39 37 35 34 34 32 29 28 30
71 49 38 31 21 12 5 7 15 21 27 32 33 29 31 27 35 31 32 32 40 44 41 35 33 37 39 45 50 55 53 48 42 42 36 36 35 34 39 41 35 35 33 30
Wind_Direction_500mb
223 236 239 210 188 190 169 176 161 237 211 260 237 205 175 191 189 191 192 195 202 211 215 216 216 216 217 220 216 214 216 219 218 214 208 211 208 220 226 239 262 253 265 279
220 224 213 222 236 203 196 162 199 161 233 217 278 191 152 179 184 185 191 198 206 212 215 217 217 219 218 221 221 218 218 219 214 209 207 209 211 216 234 247 253 252 265 284
216 214 238 259 215 222 212 204 184 209 220 155 194 267 167 171 182 187 195 201 205 210 215 219 219 221 219 219 223 221 220 215 208 205 206 209 213 215 229 241 241 255 267 287
205 99 225 241 206 219 220 212 199 201 199 183 213 214 219 193 177 180 192 200 208 212 216 219 219 220 218 220 221 220 215 208 203 205 208 208 209 219 222 224 236 255 266 277
173 201 268 216 221 178 166 230 206 200 195 205 206 184 197 190 195 191 187 191 198 201 211 214 217 215 214 217 217 214 208 203 202 206 206 207 210 213 210 221 236 244 249 267
146 212 211 214 206 153 89 275 252 210 182 196 160 145 243 200 199 198 193 196 194 191 196 204 204 209 211 210 207 203 199 200 204 203 202 206 209 207 211 220 230 229 253 275
172 206 266 228 162 128 128 232 290 242 198 186 172 203 207 218 207 198 195 192 192 194 193 195 197 200 200 201 201 199 198 200 198 195 205 202 200 206 214 222 221 231 252 264
103 133 208 159 125 185 208 244 266 284 176 189 194 199 206 206 198 194 190 192 193 190 192 193 197 194 197 200 200 199 199 197 193 200 196 194 201 208 217 212 216 227 239 247
165 204 230 122 119 109 204 233 241 240 160 145 139 146 167 181 186 188 193 194 195 196 197 194 195 193 196 199 199 194 194 199 202 194 191 196 201 209 212 206 215 226 237 254
100 309 121 106 102 91 34 312 230 210 199 168 165 164 162 165 176 184 193 198 199 199 193 192 194 197 196 198 193 194 201 201 193 190 188 193 202 208 210 207 215 233 241 258
67 273 101 91 95 100 73 31 208 192 180 182 178 173 174 173 178 184 189 194 198 198 195 195 195 194 194 195 193 197 205 194 190 190 194 197 199 194 196 211 223 239 257 267
277 252 122 121 87 89 93 13 110 133 149 160 176 174 178 177 181 186 190 192 192 193 195 194 193 193 188 192 200 204 195 191 190 192 195 198 197 196 198 215 232 239 249 250
280 288 182 125 70 54 38 171 156 151 163 151 160 175 179 183 186 189 189 190 193 193 193 195 192 190 189 191 205 205 203 193 192 195 198 193 193 201 212 215 221 218 227 233
30 57 42 55 53 94 101 126 147 157 161 164 159 172 179 185 189 192 191 193 194 195 195 195 190 191 191 192 204 207 203 200 197 197 195 195 195 197 197 205 203 199 208 212
22 36 36 44 58 56 77 71 134 146 152 156 163 165 182 186 190 191 191 193 195 194 197 194 193 193 192 194 204 203 201 199 195 196 195 191 193 195 194 189 191 195 210 188
5 18 27 31 28 26 38 40 62 167 170 165 173 181 186 193 190 191 193 195 195 195 197 196 197 195 192 199 205 199 199 197 191 188 179 182 194 196 199 200 206 209 207 201
15 11 6 4 8 7 14 17 25 186 177 169 175 181 183 186 187 189 191 195 201 205 203 200 199 197 199 206 200 193 191 189 193 189 191 195 196 198 204 210 221 229 217 230
328 344 350 353 351 352 358 7 13 177 184 176 174 178 182 186 190 190 193 196 197 201 202 202 202 200 206 203 191 188 191 191 194 201 200 202 201 208 210 219 222 227 219 226
290 310 336 331 334 341 344 351 351 181 173 172 174 179 185 193 197 197 196 196 198 200 200 200 201 206 208 194 189 191 190 194 200 203 206 200 203 206 217 217 219 218 218 224
273 287 315 315 333 344 345 352 347 183 195 185 189 184 188 192 196 197 195 196 207 214 203 198 205 209 197 191 190 192 195 202 205 201 201 199 200 207 217 212 222 219 219 226
260 269 282 293 307 330 341 328 283 205 196 222 216 201 198 192 193 191 191 196 206 209 207 209 209 198 194 193 193 193 197 204 204 202 201 202 213 212 208 216 221 221 225 238
256 255 260 271 289 309 307 278 260 235 216 223 212 203 192 186 186 191 207 223 216 210 209 211 204 198 194 194 192 191 195 206 209 208 206 208 207 206 217 223 219 224 232 231
252 235 246 262 276 292 289 237 213 225 225 209 200 196 196 192 196 205 200 203 213 212 207 211 205 201 198 196 197 197 197 195 195 204 211 215 217 225 226 214 216 226 227 223
230 234 242 258 264 266 278 264 225 211 204 201 205 208 212 210 209 213 215 210 204 202 206 207 205 202 199 198 198 195 195 204 210 203 206 219 217 226 223 222 221 219 217 226
231 232 245 274 249 248 246 242 222 214 211 208 205 205 213 217 220 211 206 202 196 200 201 208 206 202 202 202 201 200 203 208 207 209 213 216 223 222 221 221 218 218 230 227
92 87 101 191 235 244 246 230 222 206 203 200 198 200 202 207 207 197 190 186 192 198 194 192 194 203 204 203 205 204 200 204 206 211 223 229 219 219 217 215 220 228 227 225
56 67 74 77 71 65 75 157 164 159 161 162 145 143 159 162 164 170 182 186 184 186 189 202 211 208 205 199 200 199 199 196 210 219 217 220 216 220 215 226 229 229 221 223
Wind_Speed_850mb
42 31 12 10 17 18 15 14 15 18 15 23 11 22 46 80 77 78 78 83 101 109 106 102 94 91 85 77 65 60 59 58 55 44 36 34 33 34 33 28 27 26 21 20
32 22 11 21 20 34 25 13 17 15 16 15 21 23 37 68 77 76 86 102 112 115 109 105 100 94 88 81 75 70 71 66 58 47 40 43 45 42 35 30 31 23 19 17
32 30 22 14 16 27 26 25 25 22 24 10 12 18 52 58 71 82 94 109 109 112 111 108 99 95 91 82 77 77 77 68 61 52 49 50 48 41 32 32 28 22 16 13
23 11 24 18 16 20 43 41 19 14 16 19 32 55 52 63 74 77 82 91 106 104 105 105 100 93 88 84 82 81 75 70 63 57 54 52 46 36 31 31 23 18 14 11
18 26 6 11 11 14 18 30 17 25 16 26 44 22 28 63 72 73 71 62 59 67 80 96 93 87 87 86 85 79 74 71 63 60 56 51 42 36 34 28 22 18 14 10
10 29 31 16 12 14 12 9 9 23 20 22 21 9 12 72 87 80 75 66 67 73 79 84 83 82 84 86 81 76 72 65 62 60 53 47 38 37 31 25 22 18 16 13
11 21 11 15 19 18 15 16 16 30 47 36 14 24 35 52 76 84 83 79 76 71 74 79 81 81 79 75 73 68 65 62 61 53 48 41 41 35 30 26 20 18 18 15
5 10 11 22 16 31 24 32 40 25 27 52 46 44 52 57 82 81 80 78 76 79 78 79 82 75 68 68 66 64 62 62 56 49 49 45 37 32 29 25 22 23 21 18
15 13 14 29 29 18 6 23 22 35 39 56 52 48 47 66 72 73 76 75 76 77 77 78 74 67 59 64 66 66 60 53 51 53 48 42 35 32 32 29 27 25 22 18
10 6 8 43 33 21 20 7 18 43 44 58 55 52 52 54 61 67 76 79 80 81 78 75 72 64 45 60 67 62 53 51 55 53 48 39 36 33 31 30 31 29 23 20
3 3 27 34 32 16 16 13 9 41 56 56 60 64 64 69 72 75 77 83 84 84 81 75 73 64 56 57 59 61 52 58 59 53 46 46 40 33 29 25 26 24 25 25
9 15 18 11 20 20 11 8 21 35 44 50 50 57 64 75 78 80 81 83 82 83 79 74 68 67 61 56 48 54 58 63 60 56 54 45 39 34 33 29 28 28 27 26
14 29 8 24 11 15 7 10 10 15 22 30 36 45 55 69 78 80 80 81 83 83 76 70 70 65 58 52 48 51 57 62 62 59 50 44 37 31 28 27 23 19 17 18
82 60 64 50 30 26 21 20 19 17 26 21 32 44 54 70 76 76 78 79 76 71 70 69 64 60 58 50 47 51 56 61 62 55 46 39 37 29 25 20 19 17 13 9
66 68 54 55 53 56 35 17 19 30 27 27 32 42 51 64 71 74 73 72 70 65 65 65 63 61 57 49 50 56 63 64 55 47 41 39 36 33 28 24 20 16 11 12
50 55 69 72 68 62 55 47 13 17 25 33 43 50 56 61 69 71 70 64 64 69 69 68 63 59 56 51 53 61 63 58 53 46 46 40 38 38 35 28 23 18 12 9
48 64 68 74 65 63 55 51 34 18 31 36 46 53 57 58 58 60 59 57 57 55 60 64 61 60 52 50 58 67 63 56 51 45 44 37 39 39 34 28 22 17 14 10
37 32 38 44 48 52 52 46 38 26 34 40 44 48 51 52 56 58 54 53 53 56 60 57 55 53 46 54 67 69 59 58 51 46 43 38 36 34 34 33 26 20 23 19
31 38 36 41 45 46 46 49 41 35 39 39 42 44 39 40 49 50 50 50 52 56 57 54 53 47 48 65 68 60 58 57 51 46 42 40 38 46 42 44 36 28 25 22
28 31 32 38 33 36 40 37 18 25 28 37 35 32 38 44 46 47 48 50 45 43 44 49 48 46 59 64 62 60 60 56 53 48 46 47 49 50 42 45 34 31 31 25
29 24 20 31 31 23 21 20 13 16 23 28 37 38 41 45 47 47 49 46 42 41 39 41 43 55 61 61 61 59 56 54 55 55 51 47 48 46 51 46 36 35 31 26
24 25 24 28 30 24 15 13 20 29 33 37 49 47 51 52 52 52 42 35 39 41 39 40 46 58 61 60 57 55 50 51 58 53 48 43 48 46 43 38 37 33 27 26
14 18 24 30 30 29 21 15 25 28 31 39 46 48 51 55 53 46 54 50 40 40 42 43 47 56 65 65 59 55 51 46 48 55 50 45 40 36 38 37 35 29 26 28
6 16 19 24 26 28 29 24 26 28 33 37 38 39 39 43 52 52 43 43 46 46 45 49 52 60 68 67 61 48 50 51 47 44 47 40 34 33 38 35 34 31 29 27
4 10 11 14 16 21 22 23 26 32 37 39 43 47 50 49 46 51 48 49 51 47 46 47 51 54 66 70 65 57 51 47 45 42 42 41 35 31 36 31 31 30 26 23
20 22 11 4 9 13 18 21 29 33 38 43 46 49 52 55 49 48 47 50 45 44 47 48 46 45 48 61 69 53 46 42 40 40 39 39 37 35 34 34 32 29 28 30
71 49 38 31 21 12 5 7 15 21 27 32 33 29 31 27 35 31 32 32 40 44 41 35 33 37 39 45 50 55 53 48 42 42 36 36 35 34 39 41 35 35 33 30
Wind_Direction_850mb
223 236 239 210 188 190 169 176 161 237 211 260 237 205 175 191 189 191 192 195 202 211 215 216 216 216 217 220 216 214 216 219 218 214 208 211 208 220 226 239 262 253 265 279
220 224 213 222 236 203 196 162 199 161 233 217 278 191 152 179 184 185 191 198 206 212 215 217 217 219 218 221 221 218 218 219 214 209 207 209 211 216 234 247 253 252 265 284
216 214 238 259 215 222 212 204 184 209 220 155 194 267 167 171 182 187 195 201 205 210 215 219 219 221 219 219 223 221 220 215 208 205 206 209 213 215 229 241 241 255 267 287
205 99 225 241 206 219 220 212 199 201 199 183 213 214 219 193 177 180 192 200 208 212 216 219 219 220 218 220 221 220 215 208 203 205 208 208 209 219 222 224 236 255 266 277
173 201 268 216 221 178 166 230 206 200 195 205 206 184 197 190 195 191 187 191 198 201 211 214 217 215 214 217 217 214 208 203 202 206 206 207 210 213 210 221 236 244 249 267
146 212 211 214 206 153 89 275 252 210 182 196 160 145 243 200 199 198 193 196 194 191 196 204 204 209 211 210 207 203 199 200 204 203 202 206 209 207 211 220 230 229 253 275
172 206 266 228 162 128 128 232 290 242 198 186 172 203 207 218 207 198 195 192 192 194 193 195 197 200 200 201 201 199 198 200 198 195 205 202 200 206 214 222 221 231 252 264
103 133 208 159 125 185 208 244 266 284 176 189 194 199 206 206 198 194 190 192 193 190 192 193 197 194 197 200 200 199 199 197 193 200 196 194 201 208 217 212 216 227 239 247
165 204 230 122 119 109 204 233 241 240 160 145 139 146 167 181 186 188 193 194 195 196 197 194 195 193 196 199 199 194 194 199 202 194 191 196 201 209 212 206 215 226 237 254
100 309 121 106 102 91 34 312 230 210 199 168 165 164 162 165 176 184 193 198 199 199 193 192 194 197 196 198 193 194 201 201 193 190 188 193 202 208 210 207 215 233 241 258
67 273 101 91 95 100 73 31 208 192 180 182 178 173 174 173 178 184 189 194 198 198 195 195 195 194 194 195 193 197 205 194 190 190 194 197 199 194 196 211 223 239 257 267
277 252 122 121 87 89 93 13 110 133 149 160 176 174 178 177 181 186 190 192 192 193 195 194 193 193 188 192 200 204 195 191 190 192 195 198 197 196 198 215 232 239 249 250
280 288 182 125 70 54 38 171 156 151 163 151 160 175 179 183 186 189 189 190 193 193 193 195 192 190 189 191 205 205 203 193 192 195 198 193 193 201 212 215 221 218 227 233
30 57 42 55 53 94 101 126 147 157 161 164 159 172 179 185 189 192 191 193 194 195 195 195 190 191 191 192 204 207 203 200 197 197 195 195 195 197 197 205 203 199 208 212
22 36 36 44 58 56 77 71 134 146 152 156 163 165 182 186 190 191 191 193 195 194 197 194 193 193 192 194 204 203 201 199 195 196 195 191 193 195 194 189 191 195 210 188
5 18 27 31 28 26 38 40 62 167 170 165 173 181 186 193 190 191 193 195 195 195 197 196 197 195 192 199 205 199 199 197 191 188 179 182 194 196 199 200 206 209 207 201
15 11 6 4 8 7 14 17 25 186 177 169 175 181 183 186 187 189 191 195 201 205 203 200 199 197 199 206 200 193 191 189 193 189 191 195 196 198 204 210 221 229 217 230
328 344 350 353 351 352 358 7 13 177 184 176 174 178 182 186 190 190 193 196 197 201 202 202 202 200 206 203 191 188 191 191 194 201 200 202 201 208 210 219 222 227 219 226
290 310 336 331 334 341 344 351 351 181 173 172 174 179 185 193 197 197 196 196 198 200 200 200 201 206 208 194 189 191 190 194 200 203 206 200 203 206 217 217 219 218 218 224
273 287 315 315 333 344 345 352 347 183 195 185 189 184 188 192 196 197 195 196 207 214 203 198 205 209 197 191 190 192 195 202 205 201 201 199 200 207 217 212 222 219 219 226
260 269 282 293 307 330 341 328 283 205 196 222 216 201 198 192 193 191 191 196 206 209 207 209 209 198 194 193 193 193 197 204 204 202 201 202 213 212 208 216 221 221 225 238
256 255 260 271 289 309 307 278 260 235 216 223 212 203 192 186 186 191 207 223 216 210 209 211 204 198 194 194 192 191 195 206 209 208 206 208 207 206 217 223 219 224 232 231
252 235 246 262 276 292 289 237 213 225 225 209 200 196 196 192 196 205 200 203 213 212 207 211 205 201 198 196 197 197 197 195 195 204 211 215 217 225 226 214 216 226 227 223
230 234 242 258 264 266 278 264 225 211 204 201 205 208 212 210 209 213 215 210 204 202 206 207 205 202 199 198 198 195 195 204 210 203 206 219 217 226 223 222 221 219 217 226
231 232 245 274 249 248 246 242 222 214 211 208 205 205 213 217 220 211 206 202 196 200 201 208 206 202 202 202 201 200 203 208 207 209 213 216 223 222 221 221 218 218 230 227
92 87 101 191 235 244 246 230 222 206 203 200 198 200 202 207 207 197 190 186 192 198 194 192 194 203 204 203 205 204 200 204 206 211 223 229 219 219 217 215 220 228 227 225
56 67 74 77 71 65 75 157 164 159 161 162 145 143 159 162 164 170 182 186 184 186 189 202 211 208 205 199 200 199 199 196 210 219 217 220 216 220 215 226 229 229 221 223